User: anonymous   Login
Location: Fort Frances
(48.6170°N, 93.4170°W)
Time: 01:19:43
(UTC-06:00)
Language:

CZ-2C R/B - Orbit

View from above orbital plane
View from above orbital plane
View from above satellite
View from above satellite

Ground track
Ground track

The orbit data is extracted from the following two-line orbital elements,

1 36089U 09061B   14352.52769822  .00000569  00000-0  15459-3 0  5104
2 36089 098.0875 018.1313 0081571 333.0146 191.1960 14.49310065269641
Epoch (UTC): 18 December 2014 12:39:53
Eccentricity: 0.0081571
inclination: 98.0875°
perigee height: 670 km
apogee height: 786 km
right ascension of ascending node: 18.1313°
argument of perigee: 333.0146°
revolutions per day: 14.49310065
mean anomaly at epoch: 191.1960°
orbit number at epoch: 26964

The dashed part of the orbit path shows where the satellite is in the earth's shadow,  

DLR